TimeEST,TemperatureF,Dew PointF,Humidity,Sea Level PressureIn,VisibilityMPH,Wind Direction,Wind SpeedMPH,Gust SpeedMPH,PrecipitationIn,Events,Conditions,WindDirDegrees,DateUTC
12:17 AM,33.8,30.2,87,29.96,1.2,SSW,8.1,-,0.01,Snow,Light Snow,200,2013-01-06 05:17:00
12:25 AM,33.8,30.2,87,29.96,2.0,SSW,9.2,-,0.01,Snow,Light Snow,200,2013-01-06 05:25:00
12:35 AM,33.8,30.2,87,29.96,3.0,SSW,9.2,-,N/A,Snow,Light Snow,210,2013-01-06 05:35:00
12:45 AM,33.8,30.2,87,29.96,2.5,SSW,10.4,-,0.01,Snow,Light Snow,210,2013-01-06 05:45:00
12:53 AM,33.1,30.0,89,29.98,3.0,SW,10.4,-,0.01,Snow,Light Snow,220,2013-01-06 05:53:00
1:13 AM,33.8,30.2,87,29.94,4.0,SW,10.4,18.4,0.00,,Overcast,220,2013-01-06 06:13:00
1:22 AM,33.8,30.2,87,29.94,5.0,SW,10.4,-,0.00,,Overcast,220,2013-01-06 06:22:00
1:53 AM,34.0,28.9,82,29.96,6.0,SW,10.4,-,0.00,,Haze,220,2013-01-06 06:53:00
2:53 AM,35.1,28.9,78,29.95,7.0,SW,12.7,-,N/A,,Overcast,230,2013-01-06 07:53:00
3:53 AM,35.1,28.9,78,29.94,8.0,SW,10.4,-,N/A,,Overcast,220,2013-01-06 08:53:00
4:53 AM,35.1,28.9,78,29.91,7.0,SW,10.4,-,N/A,,Overcast,220,2013-01-06 09:53:00
5:53 AM,35.1,30.0,82,29.90,8.0,SW,11.5,-,N/A,,Overcast,230,2013-01-06 10:53:00
6:53 AM,35.6,30.2,81,29.87,7.0,SW,10.4,-,N/A,,Overcast,220,2013-01-06 11:53:00
7:04 AM,35.6,30.2,81,29.87,7.0,SSW,11.5,-,N/A,,Overcast,210,2013-01-06 12:04:00
7:15 AM,35.6,30.2,81,29.87,7.0,SW,9.2,-,N/A,,Overcast,220,2013-01-06 12:15:00
7:26 AM,35.6,30.2,81,29.88,7.0,SW,9.2,-,N/A,,Overcast,220,2013-01-06 12:26:00
7:42 AM,35.6,28.4,75,29.87,7.0,SW,8.1,18.4,N/A,,Overcast,220,2013-01-06 12:42:00
7:53 AM,35.1,28.9,78,29.90,7.0,SW,10.4,-,N/A,,Overcast,220,2013-01-06 12:53:00
8:11 AM,35.6,28.4,75,29.87,7.0,SW,10.4,-,N/A,,Overcast,230,2013-01-06 13:11:00
8:53 AM,35.1,30.0,82,29.90,6.0,SSW,10.4,-,N/A,,Haze,210,2013-01-06 13:53:00
9:07 AM,35.6,30.2,81,29.88,5.0,SW,11.5,-,N/A,,Haze,220,2013-01-06 14:07:00
9:53 AM,35.1,30.0,82,29.91,5.0,SW,6.9,-,N/A,,Haze,220,2013-01-06 14:53:00
10:10 AM,35.6,30.2,81,29.89,5.0,SSW,9.2,-,0.00,,Overcast,210,2013-01-06 15:10:00
10:29 AM,35.6,30.2,81,29.89,2.0,SW,9.2,-,0.01,Snow,Light Snow,220,2013-01-06 15:29:00
10:53 AM,35.1,30.9,85,29.92,2.0,SW,9.2,-,0.02,Snow,Light Snow,230,2013-01-06 15:53:00
11:00 AM,35.6,30.2,81,29.90,1.8,SW,8.1,-,0.00,Snow,Light Snow,230,2013-01-06 16:00:00
11:03 AM,35.6,30.2,81,29.90,2.0,SW,9.2,-,0.00,Snow,Light Snow,220,2013-01-06 16:03:00
11:43 AM,35.6,32.0,87,29.89,1.8,SW,10.4,-,0.01,Snow,Light Snow,230,2013-01-06 16:43:00
11:53 AM,35.1,33.1,92,29.92,1.8,WSW,10.4,-,0.01,Snow,Light Snow,240,2013-01-06 16:53:00
12:23 PM,35.6,33.8,93,29.89,2.5,WSW,9.2,-,0.01,Snow,Light Snow,240,2013-01-06 17:23:00
12:53 PM,35.1,34.0,96,29.91,2.0,WSW,9.2,-,0.01,Snow,Light Snow,250,2013-01-06 17:53:00
1:12 PM,33.8,33.8,100,29.89,1.2,West,8.1,-,0.01,Snow,Light Snow,270,2013-01-06 18:12:00
1:32 PM,33.8,33.8,100,29.90,2.5,WNW,10.4,-,0.01,Snow,Light Snow,290,2013-01-06 18:32:00
1:49 PM,33.8,33.8,100,29.90,3.0,WNW,12.7,-,0.01,,Overcast,300,2013-01-06 18:49:00
1:53 PM,34.0,33.1,96,29.93,4.0,WNW,11.5,-,0.01,,Overcast,290,2013-01-06 18:53:00
2:39 PM,33.8,28.4,81,29.93,5.0,WNW,12.7,-,0.00,,Haze,290,2013-01-06 19:39:00
2:53 PM,34.0,28.0,79,29.97,5.0,WNW,15.0,-,0.00,,Haze,290,2013-01-06 19:53:00
3:22 PM,33.8,26.6,75,29.96,6.0,WNW,15.0,-,N/A,,Haze,300,2013-01-06 20:22:00
3:53 PM,34.0,25.0,70,30.00,9.0,NW,10.4,-,N/A,,Overcast,310,2013-01-06 20:53:00
4:00 PM,33.8,24.8,70,29.98,8.0,WNW,12.7,-,N/A,,Overcast,290,2013-01-06 21:00:00
4:53 PM,33.1,26.1,75,30.04,6.0,WNW,11.5,-,N/A,,Haze,290,2013-01-06 21:53:00
5:27 PM,33.8,26.6,75,30.04,8.0,WNW,10.4,-,N/A,,Overcast,300,2013-01-06 22:27:00
5:51 PM,33.8,24.8,70,30.05,9.0,NW,10.4,-,N/A,,Overcast,310,2013-01-06 22:51:00
5:53 PM,33.1,25.0,72,30.08,9.0,WNW,9.2,-,N/A,,Overcast,300,2013-01-06 22:53:00
6:53 PM,33.1,25.0,72,30.13,8.0,WNW,10.4,-,N/A,,Overcast,300,2013-01-06 23:53:00
7:18 PM,33.8,26.6,75,30.13,8.0,WNW,10.4,-,N/A,,Overcast,300,2013-01-07 00:18:00
7:25 PM,33.8,26.6,75,30.14,8.0,WNW,10.4,-,N/A,,Overcast,300,2013-01-07 00:25:00
7:53 PM,33.1,26.1,75,30.17,8.0,NW,10.4,-,N/A,,Overcast,310,2013-01-07 00:53:00
8:13 PM,33.8,26.6,75,30.15,8.0,NW,9.2,-,N/A,,Overcast,320,2013-01-07 01:13:00
8:34 PM,33.8,26.6,75,30.17,8.0,NW,9.2,-,N/A,,Overcast,320,2013-01-07 01:34:00
8:53 PM,33.1,26.1,75,30.20,8.0,NW,8.1,-,N/A,,Overcast,310,2013-01-07 01:53:00
9:02 PM,32.0,26.6,80,30.18,8.0,NW,8.1,-,N/A,,Overcast,310,2013-01-07 02:02:00
9:26 PM,32.0,24.8,75,30.19,8.0,NW,8.1,-,N/A,,Overcast,310,2013-01-07 02:26:00
9:40 PM,32.0,24.8,75,30.19,8.0,NW,9.2,-,N/A,,Overcast,310,2013-01-07 02:40:00
9:53 PM,32.0,25.0,75,30.23,8.0,NW,9.2,-,N/A,,Overcast,320,2013-01-07 02:53:00
10:19 PM,32.0,24.8,75,30.21,8.0,NNW,6.9,-,N/A,,Overcast,330,2013-01-07 03:19:00
10:53 PM,32.0,26.1,79,30.25,8.0,NNW,4.6,-,N/A,,Overcast,330,2013-01-07 03:53:00
11:53 PM,30.9,24.1,76,30.28,10.0,North,5.8,-,N/A,,Overcast,360,2013-01-07 04:53:00